This is the latest recevied weather packets stored in our database for station/object WX5KDM. If no packets are shown the sender has not sent any weather packets the latest 10 day(s).
| Time | Temp. | Humidity | Pressure | Rain* | Wind** | Luminosity | Snow |
|---|---|---|---|---|---|---|---|
| 1788448875 | 35.56° C | 54% | 1017.4 hPa | 0 mm | - | - | - |
| 1788448574 | 35° C | 57% | 1017.4 hPa | 0 mm | - | - | - |
| 1788448269 | 35° C | 55% | 1017.6 hPa | 0 mm | - | - | - |
| 1788447969 | 34.44° C | 57% | 1017.5 hPa | 0 mm | - | - | - |
| 1788447664 | 35° C | 58% | 1017.6 hPa | 0 mm | - | - | - |
| 1788447363 | 35° C | 57% | 1017.5 hPa | 0 mm | - | - | - |
| 1788447058 | 34.44° C | 59% | 1017.3 hPa | 0 mm | - | - | - |
| 1788446757 | 33.89° C | 61% | 1017.5 hPa | 0 mm | - | - | - |
| 1788446454 | 33.89° C | 62% | 1017.7 hPa | 0 mm | - | - | - |
| 1788446150 | 33.89° C | 61% | 1017.7 hPa | 0 mm | - | - | - |
| 1788445845 | 33.33° C | 64% | 1017.6 hPa | 0 mm | - | - | - |
| 1788445540 | 32.78° C | 63% | 1017.6 hPa | 0 mm | - | - | - |
| 1788445237 | 32.78° C | 64% | 1017.5 hPa | 0 mm | - | - | - |
| 1788444932 | 32.22° C | 65% | 1017.6 hPa | 0 mm | - | - | - |
| 1788444628 | 31.67° C | 67% | 1017.7 hPa | 0 mm | - | - | - |
| 1788444323 | 31.67° C | 67% | 1017.6 hPa | 0 mm | - | - | - |
| 1788444018 | 31.11° C | 69% | 1017.9 hPa | 0 mm | - | - | - |
| 1788443714 | 31.67° C | 70% | 1017.9 hPa | 0 mm | - | - | - |
| 1788443414 | 32.22° C | 69% | 1017.7 hPa | 0 mm | - | - | - |
| 1788443113 | 30.56° C | 72% | 1017.8 hPa | 0 mm | - | - | - |
| 1788442809 | 30.56° C | 73% | 1017.8 hPa | 0 mm | - | - | - |
| 1788442507 | 30° C | 75% | 1017.8 hPa | 0 mm | - | - | - |
| 1788442202 | 30° C | 75% | 1017.8 hPa | 0 mm | - | - | - |
| 1788441897 | 29.44° C | 77% | 1017.8 hPa | 0 mm | - | - | - |
| 1788441596 | 28.89° C | 79% | 1017.9 hPa | 0 mm | - | - | - |
* Rain latest hour (hover to see other rain measurements)
** Current wind speed in m/s (hover to see current wind gust speed)